{"data":{"norad_id":64781,"intl_designator":"2025-147AC","name":"STARLINK-34582","alt_names":[],"object_type":"PAYLOAD","status":"ACTIVE","operator":null,"country":"US","launch_date":"2025-07-08","launch_site_code":"AFETR","launch_vehicle":null,"mission":null,"orbit_class":"UNKNOWN","rcs_meters":null,"size_class":null,"mass_kg":null,"dimensions":null,"purposes":["comms"],"wikipedia_slug":null,"has_3d_model":false,"image_url":null,"decayed_at":null,"tle_current":{"epoch":"2026-09-20T16:59:50.026560Z","epoch_age_seconds":109691,"freshness":"FRESH","line1":"1 64781U 25147AC  26263.70821790  .00022054  00000+0  66160-3 0  9992","line2":"2 64781  53.1593  52.3892 0001000  98.8792 261.2324 15.34416622 68601","mean_motion":15.34416622,"eccentricity":0.0001,"inclination_deg":53.1593,"raan_deg":52.3892,"arg_perigee_deg":98.8792,"mean_anomaly_deg":261.2324,"bstar":0.0006616,"rev_number":6860,"period_min":93.846741449077,"perigee_km":461.96975748251,"apogee_km":463.33791564982,"semimajor_km":6840.7908365662,"source":"CELESTRAK","updated_at":"2026-09-21T09:00:35.441663Z"}}}